This is the latest recevied weather packets stored in our database for station/object HG5PBP-13. If no packets are shown the sender has not sent any weather packets the latest 1 day(s).
| Time | Temp. | Humidity | Pressure | Rain* | Wind** | Luminosity | Snow |
|---|---|---|---|---|---|---|---|
| 1777983556 | 23.89° C | 3% | - | 0 mm | 4.92 m/s, 149° | - | - |
| 1777983256 | 23.89° C | 3% | - | 0 mm | 3.13 m/s, 132° | - | - |
| 1777982956 | 23.89° C | 3% | - | 0 mm | 4.02 m/s, 176° | - | - |
| 1777982656 | 23.89° C | 3% | - | 0 mm | 4.92 m/s, 151° | - | - |
| 1777982356 | 23.33° C | 3% | - | 0 mm | 6.26 m/s, 215° | - | - |
| 1777982056 | 23.33° C | 3% | - | 0 mm | 5.36 m/s, 153° | - | - |
| 1777981756 | 22.78° C | 3% | - | 0 mm | 5.36 m/s, 179° | - | - |
| 1777981456 | 22.78° C | 3% | - | 0 mm | 6.26 m/s, 175° | - | - |
| 1777981156 | 22.78° C | 3% | - | 0 mm | 2.68 m/s, 219° | - | - |
| 1777980856 | 22.78° C | 3% | - | 0 mm | 6.26 m/s, 155° | - | - |
| 1777980556 | 22.78° C | 3% | - | 0 mm | 3.13 m/s, 134° | - | - |
| 1777980256 | 23.33° C | 3% | - | 0 mm | 4.47 m/s, 141° | - | - |
| 1777979956 | 23.33° C | 3% | - | 0 mm | 4.92 m/s, 149° | - | - |
| 1777979656 | 22.78° C | 3% | - | 0 mm | 2.24 m/s, 140° | - | - |
| 1777979356 | 22.78° C | 3% | - | 0 mm | 5.36 m/s, 201° | - | - |
| 1777979056 | 22.78° C | 3% | - | 0 mm | 4.92 m/s, 154° | - | - |
| 1777978755 | 22.78° C | 3% | - | 0 mm | 3.58 m/s, 212° | - | - |
| 1777978456 | 22.78° C | 3% | - | 0 mm | 4.92 m/s, 171° | - | - |
| 1777978156 | 22.78° C | 3% | - | 0 mm | 4.02 m/s, 128° | - | - |
| 1777977856 | 22.78° C | 3% | - | 0 mm | 6.71 m/s, 132° | - | - |
| 1777977555 | 22.78° C | 3% | - | 0 mm | 1.79 m/s, 291° | - | - |
| 1777977256 | 22.78° C | 3% | - | 0 mm | 4.47 m/s, 161° | - | - |
| 1777976955 | 22.78° C | 3% | - | 0 mm | 3.58 m/s, 160° | - | - |
| 1777976655 | 23.33° C | 3% | - | 0 mm | 4.02 m/s, 169° | - | - |
| 1777976355 | 23.33° C | 3% | - | 0 mm | 5.36 m/s, 164° | - | - |
* Rain latest hour (hover to see other rain measurements)
** Current wind speed in m/s (hover to see current wind gust speed)